Regional Weather Roundup
Issued by NWS Charleston, SC

Current Version | Previous Version | Text Only | Print | Product List | Glossary Off
Versions: 1 2 3 4 5 6 7 8 9 10 11 12 13 14 15 16 17 18 19 20 21 22 23 24 25 26 27 28 29 30 31 32 33 34 35 36 37 38 39 40 41 42 43 44 45 46 47 48 49 50

000
ASUS42 KCHS 280728
RWRCHS

REGIONAL WEATHER ROUNDUP
NATIONAL WEATHER SERVICE CHARLESTON SC
300 AM EDT SAT MAY 28 2016

NOTE: "FAIR" INDICATES FEW OR NO CLOUDS BELOW 12,000 FEET WITH NO
SIGNIFICANT WEATHER AND/OR OBSTRUCTIONS TO VISIBILITY.

NOT ALL STATIONS ARE QUALITY CONTROLLED. USE DATA WITH CAUTION...
ESPECIALLY DEWPOINT OBSERVATIONS.

SCZ027-030-031-034>040-042>050-280800-
...SOUTHEAST SOUTH CAROLINA...

CITY           SKY/WX    TMP DP  RH WIND       PRES   REMARKS
N CHARLESTON   MOCLDY    73  67  81 NE8       30.07F
WATERFRONT PRK   N/A     75  71  87 NE9       30.05F
MOUNT PLEASANT FAIR      72  70  94 CALM      30.07F
JOHNS ISLAND   FAIR      75  70  83 NE5       30.07S
PINOPOLIS        N/A     73  66  78 E7        30.02F
MONCKS CORNER  CLOUDY    68  61  77 CALM      30.08F
SUMMERVILLE    CLOUDY    70  64  83 CALM      30.09F
BEAUFORT MCAS  CLOUDY    71  67  87 N6        30.07F
BEAUFORT ARPT  CLOUDY    73  68  83 N6        30.06S
HILTON HEAD IS CLOUDY    75  72  88 N6        30.06F
WALTERBORO     CLOUDY    72  68  88 NE5       30.08F
ALLENDALE      FAIR      64  63  94 CALM      30.08F

...SOUTHERN MIDLANDS AND PEE DEE...

CITY           SKY/WX    TMP DP  RH WIND       PRES   REMARKS
GEORGETOWN     PTSUNNY   72  68  88 NE5       30.10S
KINGSTREE      CLOUDY    64  61  88 CALM      30.10F
ORANGEBURG     MOCLDY    65  61  87 CALM      30.10F
BARNWELL       FAIR      64  64 100 CALM      30.10F
AIKEN          FAIR      59  55  88 CALM      30.14S
MANNING        CLOUDY    64  61  88 CALM      30.10S
COLUMBIA       CLEAR     63  57  81 CALM      30.11S
SUMTER         CLEAR     62  57  84 E2        30.09F
FLORENCE       CLEAR     64  60  87 NE5       30.12F
MYRTLE BEACH   PTCLDY    73  63  68 N8        30.12S
N MYRTLE BEACH PTCLDY    68  65  90 NE5       30.10F

$$

GAZ063-065-086>088-099>101-113>116-118-119-134>141-150-280800-
...SOUTHEAST GEORGIA...

CITY           SKY/WX    TMP DP  RH WIND       PRES   REMARKS
SAVANNAH ARPT  PTCLDY    67  64  90 N5        30.07S
HUNTER AAF     PTCLDY    70  69  96 CALM      30.04S
FORT STEWART   PTCLDY    64  63  94 CALM      30.03F
STATESBORO     CLEAR     64  63  98 CALM      30.07F
SYLVANIA       MOSUNNY   65  62  93 CALM      30.09S
CLAXTON        FAIR      63  62  99 CALM      30.07S

...CSRA...CENTRAL AND FAR SOUTHEAST GEORGIA...

CITY           SKY/WX    TMP DP  RH WIND       PRES   REMARKS
THOMSON        CLEAR     61  60  99 CALM      30.14S
AUGUSTA-BUSH   CLEAR     60  59  96 CALM      30.09F
AUGUSTA-DANIEL CLEAR     69  61  75 E3        30.10F
SWAINSBORO     FAIR      64  63  94 CALM      30.08F
VIDALIA        CLEAR     66  64  94 E3        30.07F
EASTMAN        FAIR     N/A N/A N/A CALM      30.10S
HAZLEHURST     FAIR      67  67 100 CALM      30.05F
ALMA           PTCLDY    66  65  96 N3        30.05F
WAYCROSS       PTCLDY    66  66 100 N3        30.04F
JESUP          FAIR      61  61 100 E5        30.05F
BAXLEY         FAIR      68  66  94 NE3       30.04F
BRUNSWICK      PTCLDY    70  68  94 CALM      30.04F
SAINT SIMONS   PTCLDY    74  71  91 NE7       30.03F

$$

SCZ027-028-034-036>038-045-046-048>050-GAZ119-141-280800-
...LAKE AND SUPPLEMENTAL COASTAL OBSERVATIONS...

STATION/POSITION TIME  TEMP    WIND        PRES    WAVE   SWELL
                       AIR SEA DIR/SP/G            HT/PER HT/PER/DIR
                 (UTC) (F)     (DEG/KT/KT) (MB)    (FT/S) (FT/S/D)
WINYAH BAY       0600   75      80/ 11     1018.0F
LAKE MURRAY      0600   72     120/  4/  6 1019.3F
ACE BASIN NERRS  0600   70        CALM     1019.0S
FORT PULASKI     0700   75 77   50/  5/  8 1018.1F
SAPELO ISLAND    0600   74      60/  5     1018.0S

$$

ANZ835-935-AMZ111-154-330-350-352-354-370-450-454-472-280800-
...C-MAN AND BUOY OBSERVATIONS...

STATION/POSITION TIME  TEMP    WIND        PRES    WAVE   SWELL
                       AIR SEA DIR/SP/G            HT/PER HT/PER/DIR
                 (UTC) (F)     (DEG/KT/KT) (MB)    (FT/S) (FT/S/D)
BUOY 41004       0650   76 76   60/ 10/ 14 1017.3F   4/ 6   3/ 6
BUOY 41008       0650   76 76   60/ 10/ 12 1017.0F   3/ 5   2/120/ 7
FOLLY BEACH CMAN 0700   75      60/ 12/ 12 1018.3F
CAPERS NEARSHORE 0708   75 76   60/ 12/ 14 1017.8F
FRIPP NEARSHORE  0708   76 76   60/ 14/ 17 1016.8F


STATION/POSITION TIME  TEMP    WIND        PRES    WAVE   SWELL
                       AIR SEA DIR/SP/G            HT/PER HT/PER/DIR
                 (UTC) (F)     (DEG/KT/KT) (MB)    (FT/S) (FT/S/D)
5E ST. MARYS GA  0601      77                N/A     3/ 7
FRYING PAN BUOY  0700   77 76   70/ 10/ 12 1018.4F
BUOY 41025       0650   76 78  120/ 14/ 16 1020.2F   4/ 8   2/110/ 8
CAPE LOOKOUT NC  0700   74     100/  6/  7 1019.7F
BUOY 41002       0650   76 77   90/ 17/ 19 1017.0F   6/ 8   5/110/ 8
BUOY 41010       0620   77 78  350/ 10/ 12 1013.8F
ST AUGUSTINE FL  0700   77 79   50/  8/  9 1016.9F


$$



USA.gov is the U.S. government's official web portal to all federal, state and local government web resources and services.